Weather History for Morristown, NJ

Change the Weather History Date:

Friday, May 25, 2012

  Actual Average Record
Temperature  
Mean Temperature 68 °F -  
Max Temperature 77 °F 74 °F 94 °F (1975)
Min Temperature 60 °F 50 °F 27 °F (1956)
Cooling Degree Days 4    
Growing Degree Days 18 (Base 50)    
Moisture  
Dew Point 63 °F    
Average Humidity 95    
Maximum Humidity 100    
Minimum Humidity 69    
Precipitation  
Precipitation 0.00 in - - ()
Sea Level Pressure  
Sea Level Pressure 30.17 in    
Wind  
Wind Speed 3 mph (ENE)    
Max Wind Speed 10 mph    
Max Gust Speed -    
Visibility 3 miles    
Events Fog , Rain    
Averages and records for this station are not official NWS values.
T = Trace of Precipitation, MM = Missing Value Source: NWS Daily Summary

Daily Weather History Graph

Daily Weather History Graph

Search for Another Location

Airport:

Trip Planner

Search our weather history database for the weather conditions in past years. The results will help you decide how hot, cold, wet, or windy it might be!

Date:

Astronomy

May. 25, 2012 Rise Set
Actual Time 5:31 AM EDT 8:17 PM EDT
Civil Twilight 4:59 AM EDT 8:50 PM EDT
Nautical Twilight 4:19 AM EDT 9:30 PM EDT
Astronomical Twilight 3:33 AM EDT 10:16 PM EDT
Moon 9:29 AM EDT (5/25) 11:51 PM EDT (5/25)
Length of Visible Light 15h 50m
Length of Day
14h 45m
Waxing Crescent, 19% of the Moon is Illuminated
May 25
Waxing Crescent
May 28
First Quarter
Jun 4
Full
Jun 11
Last Quarter
Jun 19
New

Hourly Weather History & Observations

Time (EDT) Temp. Dew Point Humidity Pressure Visibility Wind Dir Wind Speed Gust Speed Precip Events Conditions
12:15 AM 62.6 °F 62.6 °F 100% 30.19 in 1.2 mi East 3.5 mph - N/A   Overcast
12:35 AM 62.6 °F 62.6 °F 100% 30.19 in 1.8 mi Calm Calm - N/A   Overcast
12:55 AM 62.6 °F 62.6 °F 100% 30.18 in 2.0 mi Calm Calm - N/A   Overcast
1:15 AM 62.6 °F 62.6 °F 100% 30.19 in 1.5 mi NNE 4.6 mph - N/A   Overcast
1:35 AM 62.6 °F 62.6 °F 100% 30.18 in 1.5 mi NE 4.6 mph - N/A   Overcast
1:55 AM 62.6 °F 62.6 °F 100% 30.17 in 1.8 mi NE 4.6 mph - N/A   Overcast
2:15 AM 62.6 °F 62.6 °F 100% 30.17 in 1.5 mi NE 3.5 mph - N/A   Overcast
2:35 AM 60.8 °F 60.8 °F 100% 30.17 in 1.5 mi NE 3.5 mph - N/A   Overcast
2:55 AM 60.8 °F 60.8 °F 100% 30.18 in 1.5 mi NE 3.5 mph - N/A   Overcast
3:15 AM 60.8 °F 60.8 °F 100% 30.17 in 1.5 mi ENE 3.5 mph - N/A   Overcast
3:35 AM 60.8 °F 60.8 °F 100% 30.18 in 1.8 mi Calm Calm - N/A   Overcast
3:55 AM 60.8 °F 60.8 °F 100% 30.19 in 2.0 mi Calm Calm - N/A   Overcast
4:15 AM 60.8 °F 60.8 °F 100% 30.19 in 1.8 mi Calm Calm - N/A   Overcast
4:35 AM 60.8 °F 60.8 °F 100% 30.19 in 1.8 mi Calm Calm - N/A Rain Rain
4:55 AM 60.8 °F 60.8 °F 100% 30.19 in 1.8 mi Calm Calm - N/A   Overcast
5:15 AM 60.8 °F 60.8 °F 100% 30.19 in 2.0 mi NNE 3.5 mph - N/A   Overcast
5:35 AM 60.8 °F 60.8 °F 100% 30.19 in 1.8 mi Calm Calm - N/A   Overcast
5:55 AM 60.8 °F 60.8 °F 100% 30.19 in 0.8 mi NNE 3.5 mph - N/A   Overcast
6:15 AM 60.8 °F 60.8 °F 100% 30.20 in 0.8 mi Calm Calm - N/A   Overcast
6:35 AM 60.8 °F 60.8 °F 100% 30.20 in 0.8 mi NE 3.5 mph - N/A   Overcast
6:45 AM 60.8 °F 60.8 °F 100% 30.20 in 1.5 mi ENE 5.8 mph - N/A   Overcast
7:15 AM 60.8 °F 60.8 °F 100% 30.20 in 0.8 mi NE 5.8 mph - N/A   Mist
7:50 AM 62.6 °F 60.8 °F 94% 30.21 in 0.8 mi ENE 4.6 mph - N/A   Mist
8:45 AM 62.6 °F 62.6 °F 100% 30.20 in 1.0 mi East 4.6 mph - N/A   Overcast
9:45 AM 62.6 °F 62.6 °F 100% 30.19 in 1.0 mi Calm Calm - N/A   Overcast
10:45 AM 64.4 °F 62.6 °F 94% 30.19 in 1.5 mi North 4.6 mph - N/A   Overcast
11:25 AM 64.4 °F 64.4 °F 100% 30.20 in 2.0 mi ENE 4.6 mph - N/A   Overcast
11:45 AM 66.2 °F 64.4 °F 94% 30.19 in 2.2 mi East 5.8 mph - N/A   Overcast
12:45 PM 68.0 °F 66.2 °F 94% 30.19 in 2.5 mi NE 3.5 mph - N/A   Overcast
1:45 PM 69.8 °F 66.2 °F 88% 30.18 in 2.5 mi Calm Calm - N/A   Overcast
2:20 PM 71.6 °F 66.2 °F 83% 30.17 in 2.5 mi SSE 3.5 mph - N/A   Overcast
2:45 PM 71.6 °F 66.2 °F 83% 30.16 in 2.5 mi South 6.9 mph - N/A   Overcast
3:18 PM 73.4 °F 66.2 °F 78% 30.15 in 2.5 mi South 5.8 mph - N/A   Overcast
3:45 PM 75.2 °F 68.0 °F 78% 30.14 in 6.0 mi SE 6.9 mph - N/A   Haze
4:45 PM 77.0 °F 68.0 °F 74% 30.15 in 7.0 mi WNW 3.5 mph - N/A   Overcast
5:45 PM 77.0 °F 66.2 °F 69% 30.14 in 7.0 mi Calm Calm - N/A   Mostly Cloudy
6:45 PM 75.2 °F 68.0 °F 78% 30.12 in 10.0 mi SE 10.4 mph - N/A   Mostly Cloudy
7:45 PM 71.6 °F 66.2 °F 83% 30.14 in 10.0 mi SSE 6.9 mph - N/A   Mostly Cloudy
8:45 PM 69.8 °F 66.2 °F 88% 30.13 in 10.0 mi South 3.5 mph - N/A   Mostly Cloudy
9:45 PM 66.2 °F 64.4 °F 94% 30.14 in 10.0 mi Calm Calm - N/A   Clear
10:55 PM 62.6 °F 62.6 °F 100% 30.13 in 7.0 mi Calm Calm - N/A   Scattered Clouds
11:15 PM 62.6 °F 62.6 °F 100% 30.13 in 0.8 mi Calm Calm - N/A   Overcast
11:35 PM 62.6 °F 62.6 °F 100% 30.13 in 0.5 mi Calm Calm - N/A Fog Fog
11:55 PM 62.6 °F 62.6 °F 100% 30.13 in 1.8 mi Calm Calm - N/A   Overcast